GW1162 Weather Reports


Display with metric or nautical units.
time (UTC)temp
F
wind
direction
speed
MPH
gust
MPH
rain 1hr
in
rain 24hr
in
rain mn
in
humidity
%
barometer
mb
20260508053705 34 254 0.0 0.0 0.00 0.00 0.00 92 1005.1
20260508050705 35 254 0.0 0.0 0.00 0.00 0.00 91 1005.1
20260508043705 36 254 1.0 1.0 0.00 0.00 0.00 90 1005.0
20260508043205 36 254 0.0 2.0 0.00 0.00 0.00 90 1005.0
20260508040705 36 254 1.0 1.0 0.00 0.00 0.00 88 1005.2
20260508033705 37 255 1.0 2.0 0.00 0.00 0.00 85 1005.2
20260508033205 37 255 1.0 2.0 0.00 0.00 0.00 84 1005.2
20260508030205 39 255 1.0 2.0 0.00 0.00 0.00 82 1005.3
20260508023706 39 277 1.0 2.0 0.00 0.00 0.00 81 1005.3
20260508023206 40 277 1.0 2.0 0.00 0.00 0.00 81 1005.3
20260508020205 41 277 2.0 2.0 0.00 0.00 0.00 79 1005.4
20260508013705 42 315 1.0 1.0 0.00 0.00 0.00 78 1005.2
20260508013205 42 315 0.0 2.0 0.00 0.00 0.00 77 1005.1
20260508010705 43 315 1.0 3.0 0.00 0.00 0.00 77 1005.0
20260508003706 44 312 1.0 1.0 0.00 0.00 0.00 74 1004.6
20260508003205 44 312 1.0 2.0 0.00 0.00 0.00 74 1004.5
20260508000205 45 313 0.0 3.0 0.00 0.00 0.00 71 1004.2
20260507233705 45 317 1.0 3.0 0.00 0.00 0.00 70 1004.1
20260507233205 45 315 2.0 3.0 0.00 0.00 0.00 68 1004.1
20260507230205 46 332 4.0 8.0 0.00 0.00 0.00 70 1004.1
20260507223705 46 0 3.0 8.0 0.00 0.00 0.00 68 1004.1
20260507220205 45 335 5.0 8.0 0.00 0.00 0.00 66 1004.3
20260507213705 45 329 3.0 7.0 0.00 0.00 0.00 68 1004.4
20260507213205 45 0 2.0 13.0 0.00 0.00 0.00 71 1004.4
20260507210205 45 320 5.0 15.0 0.00 0.00 0.00 71 1004.2
20260507203704 43 0 11.0 16.0 0.00 0.00 0.00 74 1004.3
20260507200704 46 0 12.0 16.0 0.00 0.00 0.00 63 1004.2
20260507200205 46 0 14.0 20.0 0.00 0.00 0.00 64 1004.2
20260507193704 46 334 8.0 13.0 0.00 0.00 0.00 65 1003.9
20260507190205 45 315 12.0 18.0 0.00 0.00 0.00 67 1004.2
20260507183704 44 337 7.0 14.0 0.00 0.00 0.00 77 1004.1
20260507183205 42 341 6.0 17.0 0.00 0.00 0.00 79 1004.2
20260507180705 43 0 8.0 15.0 0.00 0.00 0.00 77 1004.2
20260507180205 42 318 7.0 14.0 0.00 0.00 0.00 80 1004.3
20260507173704 40 316 4.0 9.0 0.00 0.00 0.00 82 1004.4
20260507173205 41 0 2.0 14.0 0.00 0.00 0.00 83 1004.4
20260507170206 43 0 7.0 20.0 0.00 0.00 0.00 71 1004.2
20260507163706 43 0 5.0 20.0 0.00 0.00 0.00 71 1004.2
20260507153706 43 0 9.0 17.0 0.00 0.00 0.00 68 1004.2
20260507150706 42 0 8.0 20.0 0.00 0.00 0.00 72 1004.0
20260507150206 43 0 11.0 16.0 0.00 0.00 0.00 72 1003.9
20260507143706 43 0 4.0 10.0 0.00 0.00 0.00 66 1003.6
20260507140205 44 0 8.0 20.0 0.00 0.00 0.00 65 1003.4
20260507133706 44 0 7.0 15.0 0.00 0.00 0.00 66 1003.2
20260507133207 44 0 5.0 14.0 0.00 0.00 0.00 66 1003.2
20260507130705 44 0 7.0 13.0 0.00 0.00 0.00 67 1003.2
20260507130206 44 0 5.0 12.0 0.00 0.00 0.00 65 1003.2
20260507123706 43 0 2.0 6.0 0.00 0.00 0.00 65 1003.0
20260507123206 43 0 3.0 12.0 0.00 0.00 0.00 65 1003.1
20260507120706 42 0 1.0 3.0 0.00 0.00 0.00 65 1003.0
20260507120206 42 0 2.0 6.0 0.00 0.00 0.00 65 1003.0
20260507113706 42 0 2.0 6.0 0.00 0.00 0.00 65 1002.9
20260507113205 42 0 1.0 5.0 0.00 0.00 0.00 65 1002.9
20260507110706 42 0 2.0 6.0 0.00 0.00 0.00 65 1002.8
20260507110207 42 0 2.0 6.0 0.00 0.00 0.00 65 1002.7
20260507103706 42 0 1.0 3.0 0.00 0.00 0.00 67 1002.4
20260507100706 42 0 0.0 2.0 0.00 0.00 0.00 71 1002.3
20260507100206 42 0 0.0 2.0 0.00 0.00 0.00 72 1002.3
20260507093205 42 0 1.0 3.0 0.00 0.00 0.00 77 1002.0
20260507090206 42 0 0.0 0.0 0.00 0.00 0.00 85 1002.3
20260507083706 41 1 0.0 0.0 0.00 0.00 0.00 90 1002.7
20260507083205 41 138 0.0 0.0 0.00 0.00 0.00 90 1002.7
20260507080705 41 139 0.0 0.0 0.00 0.00 0.00 90 1002.4
20260507080206 41 140 0.0 0.0 0.00 0.00 0.00 90 1002.5
20260507073705 41 138 0.0 0.0 0.00 0.00 0.00 90 1002.6
20260507073205 41 138 0.0 0.0 0.00 0.00 0.00 90 1002.6
20260507070706 42 138 0.0 0.0 0.00 0.00 0.00 89 1002.8
20260507070206 42 137 0.0 0.0 0.00 0.00 0.00 89 1002.8
20260507063706 42 138 0.0 0.0 0.00 0.00 0.00 88 1003.0
20260507060705 42 138 0.0 0.0 0.00 0.00 0.00 88 1003.2